Home > Weather > Marengo > Past weeks

Flag for U.S.A. Weather for the Past 2 Weeks in Marengo, Indiana, U.S.A.

Now
25 °F

Overcast.


Feels Like: 18 °F
Forecast: 13 / 30 °F
Wind: 6 mph from Northeast

Location: Bowling Green-Warren County Regional Airport

Current Time: Feb 11, 2016 at 4:54:45 AM

Latest Report: Feb 11, 2016 at 3:53 AM


Visibility: 10 mi

Pressure: 30.20 "Hg

Humidity: 78%

Dew point: 19 °F

Location of MarengoLocation

Historic Weather in Marengo — Graph

°F

Marengo Temperature Yesterday

Maximum temperature yesterday: 27 °F (at 5:53 PM)
Minimum temperature yesterday: 16 °F (at 6:53 AM)
Average temperature yesterday: 22 °F

High & Low Weather Summary for the Past Weeks

 TemperatureHumidityPressure
High73 °F (Feb 2, 1:53 PM)97% (Feb 2, 6:53 AM)30.49 "Hg (Feb 2, 6:53 AM)
Low16 °F (Feb 10, 6:53 AM)23% (Feb 7, 2:53 PM)29.60 "Hg (Feb 2, 10:53 PM)
Average41 °F65%30.04 "Hg
* Reported Jan 27 3:53 AM — Feb 11 3:53 AM, Marengo, Weather by CustomWeather, © 2016

Note: Actual official high and low records may vary slightly from our data, if they occured in-between our weather recording intervals... More about our weather records

Advertising

Marengo Weather History for the Previous 24 Hours

 ConditionsComfort  
Time TempWeatherWind HumidityBarometerVisibility
3:53 AM
Thu, Feb 11
25 °FOvercast.6 mph78%30.20 "Hg10 mi
2:53 AM25 °FOvercast.3 mph78%30.19 "Hg10 mi
1:53 AM25 °FOvercast.No wind78%30.20 "Hg10 mi
12:53 AM25 °FOvercast.No wind75%30.21 "Hg10 mi
11:53 PM
Wed, Feb 10
24 °FOvercast.6 mph77%30.23 "Hg10 mi
10:53 PM24 °FOvercast.7 mph77%30.23 "Hg10 mi
9:53 PM24 °FOvercast.7 mph75%30.22 "Hg10 mi
8:53 PM24 °FOvercast.8 mph75%30.22 "Hg9 mi
7:53 PM25 °FLight snow. Overcast.8 mph66%30.21 "Hg9 mi
6:53 PM26 °FOvercast.12 mph52%30.19 "Hg10 mi
5:53 PM27 °FOvercast.12 mph49%30.16 "Hg10 mi
4:53 PM26 °FMore clouds than sun.10 mph52%30.16 "Hg10 mi
3:53 PM26 °FOvercast.12 mph50%30.16 "Hg10 mi
2:53 PM26 °FSunny.12 mph48%30.16 "Hg10 mi
1:53 PM24 °FPassing clouds.8 mph50%30.17 "Hg10 mi
12:53 PM23 °FScattered clouds.12 mph55%30.20 "Hg10 mi
11:53 AM21 °FPartly sunny.12 mph57%30.22 "Hg10 mi
10:53 AM20 °FOvercast.10 mph60%30.21 "Hg10 mi
9:53 AM18 °FMore clouds than sun.13 mph68%30.20 "Hg10 mi
8:53 AM17 °FOvercast.8 mph68%30.19 "Hg10 mi
7:53 AM16 °FPartly sunny.9 mph67%30.16 "Hg10 mi
6:53 AM16 °FSunny.15 mph67%30.16 "Hg10 mi
5:53 AM17 °FPassing clouds.8 mph68%30.13 "Hg10 mi
4:53 AM18 °FClear.9 mph68%30.11 "Hg10 mi
Weather by CustomWeather, © 2016

See weather overviewHow to use our weather pages